Tracking 19149 objects as of 21-Apr-2018
HD Live streaming from Space Station
objects crossing your sky now

FENGYUN 1C DEB

Track FENGYUN 1C DEB now!
10-day predictions


NORAD ID: 30637
Int'l Code: 1999-025ANU
Perigee: 624.1 km
Apogee: 747.5 km
Inclination: 98.9 °
Period: 98.3 minutes
Semi major axis: 7056 km
RCS: 0.039 m2 (small)
Launch date: May 10, 1999
Source: People's Republic of China (PRC)
Launch site: Taiyaun Space Center, China (TSC)

Note: This is SATELLITE DEBRIS
aabbcc
Your satellite tracking list
Your tracking list is empty




NASA's NSSDC Master Catalog

Two Line Element Set (TLE):
1 30637U 99025ANU 18111.45408730  .00001619  00000-0  30012-3 0  9993
2 30637  98.9128  37.1661 0087390 254.9521 171.4291 14.64501033592207
Source of the keplerian elements: AFSPC